owner,sensor,date,latitude,longitude,vertical_datum,sea_water_temperature,qcFlag
Enven,ioos:station:wmo:42384:1,2022-10-01T14:32:00Z,27.9920,-90.3255,11.2,28.9,11111222
Enven,ioos:station:wmo:42384:1,2022-10-01T14:42:00Z,27.9920,-90.3255,11.2,28.9,11111222
Enven,ioos:station:wmo:42384:1,2022-10-01T14:52:00Z,27.9920,-90.3255,11.0,28.9,11111222
Enven,ioos:station:wmo:42384:1,2022-10-01T15:02:00Z,27.9920,-90.3255,11.1,28.9,11111222
Enven,ioos:station:wmo:42384:1,2022-10-01T15:12:00Z,27.9920,-90.3255,11.0,28.9,11111222
Enven,ioos:station:wmo:42384:1,2022-10-01T15:22:00Z,27.9920,-90.3255,10.9,28.9,11111222
Enven,ioos:station:wmo:42384:1,2022-10-01T15:32:00Z,27.9920,-90.3255,10.9,28.8,11111222
Enven,ioos:station:wmo:42384:1,2022-10-01T15:42:00Z,27.9920,-90.3255,10.9,28.8,11111222
Enven,ioos:station:wmo:42384:1,2022-10-01T15:52:00Z,27.9920,-90.3255,10.8,28.8,11111222
Enven,ioos:station:wmo:42384:1,2022-10-01T16:02:00Z,27.9920,-90.3255,10.8,28.8,11111222
Enven,ioos:station:wmo:42384:1,2022-10-01T16:12:00Z,27.9920,-90.3255,10.9,28.8,11111222
Enven,ioos:station:wmo:42384:1,2022-10-01T16:22:00Z,27.9920,-90.3255,10.8,28.7,11111222
Enven,ioos:station:wmo:42384:1,2022-10-01T16:32:00Z,27.9920,-90.3255,10.9,28.7,11111222
Enven,ioos:station:wmo:42384:1,2022-10-01T16:42:00Z,27.9920,-90.3255,10.7,28.7,11111222
Enven,ioos:station:wmo:42384:1,2022-10-01T16:52:00Z,27.9920,-90.3255,10.8,28.7,11111222
Enven,ioos:station:wmo:42384:1,2022-10-01T17:02:00Z,27.9920,-90.3255,10.7,28.7,11111222
Enven,ioos:station:wmo:42384:1,2022-10-01T17:12:00Z,27.9920,-90.3255,10.7,28.8,11111222
Enven,ioos:station:wmo:42384:1,2022-10-01T17:22:00Z,27.9920,-90.3255,10.8,28.8,11111222
Enven,ioos:station:wmo:42384:1,2022-10-01T17:32:00Z,27.9920,-90.3255,10.6,28.8,11111222
Enven,ioos:station:wmo:42384:1,2022-10-01T17:42:00Z,27.9920,-90.3255,10.5,28.8,11111222
Enven,ioos:station:wmo:42384:1,2022-10-01T17:52:00Z,27.9920,-90.3255,10.3,28.8,11111222
Enven,ioos:station:wmo:42384:1,2022-10-01T18:02:00Z,27.9920,-90.3255,10.5,28.8,11111222
Enven,ioos:station:wmo:42384:1,2022-10-01T18:12:00Z,27.9920,-90.3255,10.4,28.8,11111222
Enven,ioos:station:wmo:42384:1,2022-10-01T18:22:00Z,27.9920,-90.3255,10.6,28.7,11111222
Enven,ioos:station:wmo:42384:1,2022-10-01T18:32:00Z,27.9920,-90.3255,10.6,28.7,11111222
Enven,ioos:station:wmo:42384:1,2022-10-01T18:42:00Z,27.9920,-90.3255,10.6,28.7,11111222
Enven,ioos:station:wmo:42384:1,2022-10-01T18:52:00Z,27.9920,-90.3255,10.5,28.8,11111222
Enven,ioos:station:wmo:42384:1,2022-10-01T19:02:00Z,27.9920,-90.3255,10.4,28.8,11111222
Enven,ioos:station:wmo:42384:1,2022-10-01T19:12:00Z,27.9920,-90.3255,10.5,28.8,11111222
Enven,ioos:station:wmo:42384:1,2022-10-01T19:22:00Z,27.9920,-90.3255,10.5,28.8,11111222
Enven,ioos:station:wmo:42384:1,2022-10-01T19:32:00Z,27.9920,-90.3255,10.5,28.8,11111222
Enven,ioos:station:wmo:42384:1,2022-10-01T19:42:00Z,27.9920,-90.3255,10.4,28.8,11111222
Enven,ioos:station:wmo:42384:1,2022-10-01T19:52:00Z,27.9920,-90.3255,10.4,28.8,11111222
Enven,ioos:station:wmo:42384:1,2022-10-01T20:02:00Z,27.9920,-90.3255,10.6,28.8,11111222
Enven,ioos:station:wmo:42384:1,2022-10-01T20:12:00Z,27.9920,-90.3255,10.4,28.8,11111222
Enven,ioos:station:wmo:42384:1,2022-10-01T20:22:00Z,27.9920,-90.3255,10.3,28.8,11111222
Enven,ioos:station:wmo:42384:1,2022-10-01T20:32:00Z,27.9920,-90.3255,10.3,28.8,11111222
Enven,ioos:station:wmo:42384:1,2022-10-01T20:42:00Z,27.9920,-90.3255,10.4,28.7,11111222
Enven,ioos:station:wmo:42384:1,2022-10-01T20:52:00Z,27.9920,-90.3255,10.5,28.7,11111222
Enven,ioos:station:wmo:42384:1,2022-10-01T21:02:00Z,27.9920,-90.3255,10.3,28.7,11111222
Enven,ioos:station:wmo:42384:1,2022-10-01T21:12:00Z,27.9920,-90.3255,10.4,28.7,11111222
Enven,ioos:station:wmo:42384:1,2022-10-01T21:22:00Z,27.9920,-90.3255,10.3,28.7,11111222
Enven,ioos:station:wmo:42384:1,2022-10-01T21:32:00Z,27.9920,-90.3255,10.5,28.7,11111222
Enven,ioos:station:wmo:42384:1,2022-10-01T21:42:00Z,27.9920,-90.3255,10.5,28.7,11111222
Enven,ioos:station:wmo:42384:1,2022-10-01T21:52:00Z,27.9920,-90.3255,10.4,28.7,11111222
Enven,ioos:station:wmo:42384:1,2022-10-01T22:02:00Z,27.9920,-90.3255,10.5,28.7,11111222
Enven,ioos:station:wmo:42384:1,2022-10-01T22:12:00Z,27.9920,-90.3255,10.4,28.7,11111222
Enven,ioos:station:wmo:42384:1,2022-10-01T22:22:00Z,27.9920,-90.3255,10.5,28.7,11111222
Enven,ioos:station:wmo:42384:1,2022-10-01T22:32:00Z,27.9920,-90.3255,10.4,28.7,11111222
Enven,ioos:station:wmo:42384:1,2022-10-01T22:42:00Z,27.9920,-90.3255,10.4,28.7,11111222
Enven,ioos:station:wmo:42384:1,2022-10-01T22:52:00Z,27.9920,-90.3255,10.3,28.7,11111222
Enven,ioos:station:wmo:42384:1,2022-10-01T23:02:00Z,27.9920,-90.3255,10.5,28.7,11111222
Enven,ioos:station:wmo:42384:1,2022-10-01T23:12:00Z,27.9920,-90.3255,10.5,28.7,11111222
Enven,ioos:station:wmo:42384:1,2022-10-01T23:22:00Z,27.9920,-90.3255,10.6,28.7,11111222
Enven,ioos:station:wmo:42384:1,2022-10-01T23:32:00Z,27.9920,-90.3255,10.5,28.7,11111222
Enven,ioos:station:wmo:42384:1,2022-10-01T23:42:00Z,27.9920,-90.3255,10.6,28.7,11111222
Enven,ioos:station:wmo:42384:1,2022-10-01T23:52:00Z,27.9920,-90.3255,10.6,28.7,11111222
Enven,ioos:station:wmo:42384:1,2022-10-02T00:02:00Z,27.9920,-90.3255,10.6,28.7,11111222
Enven,ioos:station:wmo:42384:1,2022-10-02T00:12:00Z,27.9920,-90.3255,10.5,28.6,11111222
Enven,ioos:station:wmo:42384:1,2022-10-02T00:22:00Z,27.9920,-90.3255,10.6,28.6,11111222
Enven,ioos:station:wmo:42384:1,2022-10-02T00:32:00Z,27.9920,-90.3255,10.6,28.6,11111222
Enven,ioos:station:wmo:42384:1,2022-10-02T00:42:00Z,27.9920,-90.3255,10.6,28.6,11111222
Enven,ioos:station:wmo:42384:1,2022-10-02T00:52:00Z,27.9920,-90.3255,10.7,28.6,11111222
Enven,ioos:station:wmo:42384:1,2022-10-02T01:02:00Z,27.9920,-90.3255,10.7,28.6,11111222
Enven,ioos:station:wmo:42384:1,2022-10-02T01:12:00Z,27.9920,-90.3255,10.6,28.6,11111222
Enven,ioos:station:wmo:42384:1,2022-10-02T01:22:00Z,27.9920,-90.3255,10.6,28.6,11111222
Enven,ioos:station:wmo:42384:1,2022-10-02T01:32:00Z,27.9920,-90.3255,10.7,28.6,11111222
Enven,ioos:station:wmo:42384:1,2022-10-02T01:42:00Z,27.9920,-90.3255,10.8,28.6,11111222
Enven,ioos:station:wmo:42384:1,2022-10-02T01:52:00Z,27.9920,-90.3255,10.7,28.6,11111222
Enven,ioos:station:wmo:42384:1,2022-10-02T02:02:00Z,27.9920,-90.3255,10.8,28.6,11111222
Enven,ioos:station:wmo:42384:1,2022-10-02T02:12:00Z,27.9920,-90.3255,10.8,28.6,11111222
Enven,ioos:station:wmo:42384:1,2022-10-02T02:22:00Z,27.9920,-90.3255,11.0,28.6,11111222
Enven,ioos:station:wmo:42384:1,2022-10-02T02:32:00Z,27.9920,-90.3255,10.8,28.6,11111222
Enven,ioos:station:wmo:42384:1,2022-10-02T02:42:00Z,27.9920,-90.3255,10.8,28.6,11111222
Enven,ioos:station:wmo:42384:1,2022-10-02T02:52:00Z,27.9920,-90.3255,10.7,28.6,11111222
Enven,ioos:station:wmo:42384:1,2022-10-02T03:02:00Z,27.9920,-90.3255,10.9,28.6,11111222
Enven,ioos:station:wmo:42384:1,2022-10-02T03:12:00Z,27.9920,-90.3255,10.9,28.6,11111222
Enven,ioos:station:wmo:42384:1,2022-10-02T03:22:00Z,27.9920,-90.3255,10.8,28.6,11111222
Enven,ioos:station:wmo:42384:1,2022-10-02T03:32:00Z,27.9920,-90.3255,10.9,28.6,11111222
Enven,ioos:station:wmo:42384:1,2022-10-02T03:42:00Z,27.9920,-90.3255,10.9,28.6,11111222
Enven,ioos:station:wmo:42384:1,2022-10-02T03:52:00Z,27.9920,-90.3255,10.8,28.6,11111222
Enven,ioos:station:wmo:42384:1,2022-10-02T04:02:00Z,27.9920,-90.3255,10.8,28.6,11111222
Enven,ioos:station:wmo:42384:1,2022-10-02T04:12:00Z,27.9920,-90.3255,10.9,28.6,11111222
Enven,ioos:station:wmo:42384:1,2022-10-02T04:23:00Z,27.9920,-90.3255,10.8,28.6,11111222
Enven,ioos:station:wmo:42384:1,2022-10-02T04:33:00Z,27.9920,-90.3255,10.9,28.7,11111222
Enven,ioos:station:wmo:42384:1,2022-10-02T04:43:00Z,27.9920,-90.3255,11.0,28.7,11111222
Enven,ioos:station:wmo:42384:1,2022-10-02T04:53:00Z,27.9920,-90.3255,10.9,28.7,11111222
Enven,ioos:station:wmo:42384:1,2022-10-02T05:03:00Z,27.9920,-90.3255,10.8,28.7,11111222
Enven,ioos:station:wmo:42384:1,2022-10-02T05:13:00Z,27.9920,-90.3255,10.8,28.7,11111222
Enven,ioos:station:wmo:42384:1,2022-10-02T05:23:00Z,27.9920,-90.3255,10.8,28.8,11111222
Enven,ioos:station:wmo:42384:1,2022-10-02T05:33:00Z,27.9920,-90.3255,10.9,28.8,11111222
Enven,ioos:station:wmo:42384:1,2022-10-02T05:43:00Z,27.9920,-90.3255,10.8,28.8,11111222
Enven,ioos:station:wmo:42384:1,2022-10-02T05:53:00Z,27.9920,-90.3255,10.9,28.8,11111222
Enven,ioos:station:wmo:42384:1,2022-10-02T06:03:00Z,27.9920,-90.3255,10.9,28.8,11111222
Enven,ioos:station:wmo:42384:1,2022-10-02T06:13:00Z,27.9920,-90.3255,11.0,28.7,11111222
Enven,ioos:station:wmo:42384:1,2022-10-02T06:23:00Z,27.9920,-90.3255,10.9,28.7,11111222
Enven,ioos:station:wmo:42384:1,2022-10-02T06:33:00Z,27.9920,-90.3255,11.0,28.7,11111222
Enven,ioos:station:wmo:42384:1,2022-10-02T06:43:00Z,27.9920,-90.3255,11.0,28.7,11111222
Enven,ioos:station:wmo:42384:1,2022-10-02T06:53:00Z,27.9920,-90.3255,10.9,28.7,11111222
Enven,ioos:station:wmo:42384:1,2022-10-02T07:03:00Z,27.9920,-90.3255,10.9,28.7,11111222
Enven,ioos:station:wmo:42384:1,2022-10-02T07:13:00Z,27.9920,-90.3255,10.9,28.7,11111222
Enven,ioos:station:wmo:42384:1,2022-10-02T07:23:00Z,27.9920,-90.3255,11.0,28.7,11111222
Enven,ioos:station:wmo:42384:1,2022-10-02T07:33:00Z,27.9920,-90.3255,10.9,28.6,11111222
Enven,ioos:station:wmo:42384:1,2022-10-02T07:43:00Z,27.9920,-90.3255,10.9,28.6,11111222
Enven,ioos:station:wmo:42384:1,2022-10-02T07:53:00Z,27.9920,-90.3255,10.9,28.6,11111222
Enven,ioos:station:wmo:42384:1,2022-10-02T08:03:00Z,27.9920,-90.3255,10.9,28.6,11111222
Enven,ioos:station:wmo:42384:1,2022-10-02T08:13:00Z,27.9920,-90.3255,10.8,28.6,11111222
Enven,ioos:station:wmo:42384:1,2022-10-02T08:23:00Z,27.9920,-90.3255,10.8,28.6,11111222
Enven,ioos:station:wmo:42384:1,2022-10-02T08:33:00Z,27.9920,-90.3255,11.0,28.6,11111222
Enven,ioos:station:wmo:42384:1,2022-10-02T08:43:00Z,27.9920,-90.3255,10.8,28.6,11111222
Enven,ioos:station:wmo:42384:1,2022-10-02T08:53:00Z,27.9920,-90.3255,10.9,28.6,11111222
Enven,ioos:station:wmo:42384:1,2022-10-02T09:03:00Z,27.9920,-90.3255,10.9,28.6,11111222
Enven,ioos:station:wmo:42384:1,2022-10-02T09:13:00Z,27.9920,-90.3255,10.8,28.6,11111222
Enven,ioos:station:wmo:42384:1,2022-10-02T09:23:00Z,27.9920,-90.3255,10.9,28.6,11111222
Enven,ioos:station:wmo:42384:1,2022-10-02T09:33:00Z,27.9920,-90.3255,10.8,28.6,11111222
Enven,ioos:station:wmo:42384:1,2022-10-02T09:43:00Z,27.9920,-90.3255,10.9,28.6,11111222
Enven,ioos:station:wmo:42384:1,2022-10-02T09:53:00Z,27.9920,-90.3255,10.8,28.6,11111222
Enven,ioos:station:wmo:42384:1,2022-10-02T10:03:00Z,27.9920,-90.3255,10.9,28.6,11111222
Enven,ioos:station:wmo:42384:1,2022-10-02T10:13:00Z,27.9920,-90.3255,10.8,28.6,11111222
Enven,ioos:station:wmo:42384:1,2022-10-02T10:23:00Z,27.9920,-90.3255,10.9,28.6,11111222
Enven,ioos:station:wmo:42384:1,2022-10-02T10:33:00Z,27.9920,-90.3255,10.8,28.6,11111222
Enven,ioos:station:wmo:42384:1,2022-10-02T10:43:00Z,27.9920,-90.3255,10.8,28.5,11111222
Enven,ioos:station:wmo:42384:1,2022-10-02T10:53:00Z,27.9920,-90.3255,10.8,28.5,11111222
Enven,ioos:station:wmo:42384:1,2022-10-02T11:03:00Z,27.9920,-90.3255,10.7,28.5,11111222
Enven,ioos:station:wmo:42384:1,2022-10-02T11:13:00Z,27.9920,-90.3255,10.9,28.5,11111222
Enven,ioos:station:wmo:42384:1,2022-10-02T11:23:00Z,27.9920,-90.3255,10.7,28.5,11111222
Enven,ioos:station:wmo:42384:1,2022-10-02T11:33:00Z,27.9920,-90.3255,10.7,28.5,11111222
Enven,ioos:station:wmo:42384:1,2022-10-02T11:43:00Z,27.9920,-90.3255,10.8,28.6,11111222
Enven,ioos:station:wmo:42384:1,2022-10-02T11:53:00Z,27.9920,-90.3255,10.9,28.6,11111222
Enven,ioos:station:wmo:42384:1,2022-10-02T12:03:00Z,27.9920,-90.3255,10.8,28.6,11111222
Enven,ioos:station:wmo:42384:1,2022-10-02T12:13:00Z,27.9920,-90.3255,10.8,28.6,11111222
Enven,ioos:station:wmo:42384:1,2022-10-02T12:23:00Z,27.9920,-90.3255,10.8,28.6,11111222
Enven,ioos:station:wmo:42384:1,2022-10-02T12:33:00Z,27.9920,-90.3255,10.8,28.6,11111222
Enven,ioos:station:wmo:42384:1,2022-10-02T12:43:00Z,27.9920,-90.3255,10.8,28.6,11111222
Enven,ioos:station:wmo:42384:1,2022-10-02T12:53:00Z,27.9920,-90.3255,10.7,28.6,11111222
Enven,ioos:station:wmo:42384:1,2022-10-02T13:03:00Z,27.9920,-90.3255,10.6,28.6,11111222
Enven,ioos:station:wmo:42384:1,2022-10-02T13:13:00Z,27.9920,-90.3255,10.6,28.6,11111222
Enven,ioos:station:wmo:42384:1,2022-10-02T13:23:00Z,27.9920,-90.3255,10.7,28.6,11111222
Enven,ioos:station:wmo:42384:1,2022-10-02T13:33:00Z,27.9920,-90.3255,10.6,28.6,11111222
Enven,ioos:station:wmo:42384:1,2022-10-02T13:43:00Z,27.9920,-90.3255,10.7,28.6,11111222
Enven,ioos:station:wmo:42384:1,2022-10-02T13:53:00Z,27.9920,-90.3255,10.8,28.6,11111222
Enven,ioos:station:wmo:42384:1,2022-10-02T14:03:00Z,27.9920,-90.3255,10.7,28.6,11111222
Enven,ioos:station:wmo:42384:1,2022-10-02T14:13:00Z,27.9920,-90.3255,10.6,28.6,11111222
Enven,ioos:station:wmo:42384:1,2022-10-02T14:23:00Z,27.9920,-90.3255,10.7,28.6,11111222
Enven,ioos:station:wmo:42384:1,2022-10-02T14:33:00Z,27.9920,-90.3255,10.6,28.6,11111222
Enven,ioos:station:wmo:42384:1,2022-10-02T14:43:00Z,27.9920,-90.3255,10.5,28.6,11111222
Enven,ioos:station:wmo:42384:1,2022-10-02T14:53:00Z,27.9920,-90.3255,10.6,28.6,11111222
Enven,ioos:station:wmo:42384:1,2022-10-02T15:03:00Z,27.9920,-90.3255,10.6,28.6,11111222
Enven,ioos:station:wmo:42384:1,2022-10-02T15:13:00Z,27.9920,-90.3255,10.7,28.6,11111222
Enven,ioos:station:wmo:42384:1,2022-10-02T15:23:00Z,27.9920,-90.3255,10.5,28.6,11111222
Enven,ioos:station:wmo:42384:1,2022-10-02T15:33:00Z,27.9920,-90.3255,10.6,28.6,11111222
Enven,ioos:station:wmo:42384:1,2022-10-02T15:43:00Z,27.9920,-90.3255,10.5,28.6,11111222
Enven,ioos:station:wmo:42384:1,2022-10-02T15:53:00Z,27.9920,-90.3255,10.7,28.6,11111222
Enven,ioos:station:wmo:42384:1,2022-10-02T16:03:00Z,27.9920,-90.3255,10.6,28.6,11111222
Enven,ioos:station:wmo:42384:1,2022-10-02T16:13:00Z,27.9920,-90.3255,10.5,28.6,11111222
Enven,ioos:station:wmo:42384:1,2022-10-02T16:23:00Z,27.9920,-90.3255,10.6,28.6,11111222
Enven,ioos:station:wmo:42384:1,2022-10-02T16:33:00Z,27.9920,-90.3255,10.5,28.6,11111222
Enven,ioos:station:wmo:42384:1,2022-10-02T16:43:00Z,27.9920,-90.3255,10.5,28.6,11111222
Enven,ioos:station:wmo:42384:1,2022-10-02T16:53:00Z,27.9920,-90.3255,10.6,28.6,11111222
Enven,ioos:station:wmo:42384:1,2022-10-02T17:03:00Z,27.9920,-90.3255,10.4,28.6,11111222
Enven,ioos:station:wmo:42384:1,2022-10-02T17:13:00Z,27.9920,-90.3255,10.5,28.6,11111222
Enven,ioos:station:wmo:42384:1,2022-10-02T17:23:00Z,27.9920,-90.3255,10.5,28.6,11111222
Enven,ioos:station:wmo:42384:1,2022-10-02T17:33:00Z,27.9920,-90.3255,10.4,28.6,11111222
Enven,ioos:station:wmo:42384:1,2022-10-02T17:43:00Z,27.9920,-90.3255,10.5,28.6,11111222
Enven,ioos:station:wmo:42384:1,2022-10-02T17:53:00Z,27.9920,-90.3255,10.6,28.6,11111222
Enven,ioos:station:wmo:42384:1,2022-10-02T18:03:00Z,27.9920,-90.3255,10.5,28.6,11111222
Enven,ioos:station:wmo:42384:1,2022-10-02T18:13:00Z,27.9920,-90.3255,10.6,28.6,11111222
Enven,ioos:station:wmo:42384:1,2022-10-02T18:23:00Z,27.9920,-90.3255,10.4,28.6,11111222
Enven,ioos:station:wmo:42384:1,2022-10-02T18:33:00Z,27.9920,-90.3255,10.4,28.6,11111222
Enven,ioos:station:wmo:42384:1,2022-10-02T18:43:00Z,27.9920,-90.3255,10.5,28.6,11111222
Enven,ioos:station:wmo:42384:1,2022-10-02T18:53:00Z,27.9920,-90.3255,10.5,28.6,11111222
Enven,ioos:station:wmo:42384:1,2022-10-02T19:03:00Z,27.9920,-90.3255,10.5,28.7,11111222
Enven,ioos:station:wmo:42384:1,2022-10-02T19:13:00Z,27.9920,-90.3255,10.3,28.7,11111222
Enven,ioos:station:wmo:42384:1,2022-10-02T19:23:00Z,27.9920,-90.3255,10.4,28.7,11111222
Enven,ioos:station:wmo:42384:1,2022-10-02T19:33:00Z,27.9920,-90.3255,10.5,28.7,11111222
Enven,ioos:station:wmo:42384:1,2022-10-02T19:43:00Z,27.9920,-90.3255,10.4,28.7,11111222
Enven,ioos:station:wmo:42384:1,2022-10-02T19:53:00Z,27.9920,-90.3255,10.6,28.7,11111222
Enven,ioos:station:wmo:42384:1,2022-10-02T20:03:00Z,27.9920,-90.3255,10.5,28.7,11111222
Enven,ioos:station:wmo:42384:1,2022-10-02T20:13:00Z,27.9920,-90.3255,10.5,28.7,11111222
Enven,ioos:station:wmo:42384:1,2022-10-02T20:23:00Z,27.9920,-90.3255,10.5,28.7,11111222
Enven,ioos:station:wmo:42384:1,2022-10-02T20:33:00Z,27.9920,-90.3255,10.5,28.7,11111222
Enven,ioos:station:wmo:42384:1,2022-10-02T20:43:00Z,27.9920,-90.3255,10.5,28.7,11111222
Enven,ioos:station:wmo:42384:1,2022-10-02T20:53:00Z,27.9920,-90.3255,10.5,28.6,11111222
Enven,ioos:station:wmo:42384:1,2022-10-02T21:03:00Z,27.9920,-90.3255,10.5,28.6,11111222
Enven,ioos:station:wmo:42384:1,2022-10-02T21:13:00Z,27.9920,-90.3255,10.7,28.6,11111222
Enven,ioos:station:wmo:42384:1,2022-10-02T21:23:00Z,27.9920,-90.3255,10.6,28.6,11111222
Enven,ioos:station:wmo:42384:1,2022-10-02T21:33:00Z,27.9920,-90.3255,10.7,28.6,11111222
Enven,ioos:station:wmo:42384:1,2022-10-02T21:43:00Z,27.9920,-90.3255,10.6,28.6,11111222
Enven,ioos:station:wmo:42384:1,2022-10-02T21:53:00Z,27.9920,-90.3255,10.6,28.6,11111222
Enven,ioos:station:wmo:42384:1,2022-10-02T22:04:00Z,27.9920,-90.3255,10.6,28.6,11111222
Enven,ioos:station:wmo:42384:1,2022-10-02T22:14:00Z,27.9920,-90.3255,10.5,28.6,11111222
Enven,ioos:station:wmo:42384:1,2022-10-02T22:24:00Z,27.9920,-90.3255,10.6,28.6,11111222
Enven,ioos:station:wmo:42384:1,2022-10-02T22:34:00Z,27.9920,-90.3255,10.7,28.6,11111222
Enven,ioos:station:wmo:42384:1,2022-10-02T22:44:00Z,27.9920,-90.3255,10.6,28.6,11111222
Enven,ioos:station:wmo:42384:1,2022-10-02T22:54:00Z,27.9920,-90.3255,10.6,28.6,11111222
Enven,ioos:station:wmo:42384:1,2022-10-02T23:04:00Z,27.9920,-90.3255,10.7,28.6,11111222
Enven,ioos:station:wmo:42384:1,2022-10-02T23:14:00Z,27.9920,-90.3255,10.7,28.6,11111222
Enven,ioos:station:wmo:42384:1,2022-10-02T23:24:00Z,27.9920,-90.3255,10.7,28.6,11111222
Enven,ioos:station:wmo:42384:1,2022-10-02T23:34:00Z,27.9920,-90.3255,10.8,28.6,11111222
Enven,ioos:station:wmo:42384:1,2022-10-02T23:44:00Z,27.9920,-90.3255,10.6,28.6,11111222
Enven,ioos:station:wmo:42384:1,2022-10-02T23:54:00Z,27.9920,-90.3255,10.8,28.6,11111222
Enven,ioos:station:wmo:42384:1,2022-10-03T00:04:00Z,27.9920,-90.3255,10.8,28.6,11111222
Enven,ioos:station:wmo:42384:1,2022-10-03T00:14:00Z,27.9920,-90.3255,10.7,28.6,11111222
Enven,ioos:station:wmo:42384:1,2022-10-03T00:24:00Z,27.9920,-90.3255,10.9,28.6,11111222
Enven,ioos:station:wmo:42384:1,2022-10-03T00:34:00Z,27.9920,-90.3255,10.8,28.6,11111222
Enven,ioos:station:wmo:42384:1,2022-10-03T00:44:00Z,27.9920,-90.3255,10.8,28.6,11111222
Enven,ioos:station:wmo:42384:1,2022-10-03T00:54:00Z,27.9920,-90.3255,10.9,28.6,11111222
Enven,ioos:station:wmo:42384:1,2022-10-03T01:04:00Z,27.9920,-90.3255,10.8,28.6,11111222
Enven,ioos:station:wmo:42384:1,2022-10-03T01:14:00Z,27.9920,-90.3255,11.1,28.6,11111222
Enven,ioos:station:wmo:42384:1,2022-10-03T01:24:00Z,27.9920,-90.3255,11.0,28.6,11111222
Enven,ioos:station:wmo:42384:1,2022-10-03T01:34:00Z,27.9920,-90.3255,11.0,28.6,11111222
Enven,ioos:station:wmo:42384:1,2022-10-03T01:44:00Z,27.9920,-90.3255,10.9,28.6,11111222
Enven,ioos:station:wmo:42384:1,2022-10-03T01:54:00Z,27.9920,-90.3255,11.1,28.6,11111222
Enven,ioos:station:wmo:42384:1,2022-10-03T02:04:00Z,27.9920,-90.3255,11.1,28.6,11111222
Enven,ioos:station:wmo:42384:1,2022-10-03T02:14:00Z,27.9920,-90.3255,10.8,28.6,11111222
Enven,ioos:station:wmo:42384:1,2022-10-03T02:24:00Z,27.9920,-90.3255,11.0,28.6,11111222
Enven,ioos:station:wmo:42384:1,2022-10-03T02:34:00Z,27.9920,-90.3255,11.0,28.6,11111222
Enven,ioos:station:wmo:42384:1,2022-10-03T02:44:00Z,27.9920,-90.3255,11.1,28.5,11111222
Enven,ioos:station:wmo:42384:1,2022-10-03T02:54:00Z,27.9920,-90.3255,10.9,28.5,11111222
Enven,ioos:station:wmo:42384:1,2022-10-03T03:04:00Z,27.9920,-90.3255,11.1,28.5,11111222
Enven,ioos:station:wmo:42384:1,2022-10-03T03:14:00Z,27.9920,-90.3255,11.0,28.5,11111222
Enven,ioos:station:wmo:42384:1,2022-10-03T03:24:00Z,27.9920,-90.3255,11.0,28.5,11111222
Enven,ioos:station:wmo:42384:1,2022-10-03T03:34:00Z,27.9920,-90.3255,11.1,28.5,11111222
Enven,ioos:station:wmo:42384:1,2022-10-03T03:44:00Z,27.9920,-90.3255,11.1,28.5,11111222
Enven,ioos:station:wmo:42384:1,2022-10-03T03:54:00Z,27.9920,-90.3255,11.1,28.5,11111222
Enven,ioos:station:wmo:42384:1,2022-10-03T04:04:00Z,27.9920,-90.3255,11.2,28.5,11111222
Enven,ioos:station:wmo:42384:1,2022-10-03T04:14:00Z,27.9920,-90.3255,11.0,28.5,11111222
Enven,ioos:station:wmo:42384:1,2022-10-03T04:24:00Z,27.9920,-90.3255,11.2,28.5,11111222
Enven,ioos:station:wmo:42384:1,2022-10-03T04:34:00Z,27.9920,-90.3255,11.1,28.5,11111222
Enven,ioos:station:wmo:42384:1,2022-10-03T04:44:00Z,27.9920,-90.3255,11.1,28.5,11111222
Enven,ioos:station:wmo:42384:1,2022-10-03T04:54:00Z,27.9920,-90.3255,11.2,28.4,11111222
Enven,ioos:station:wmo:42384:1,2022-10-03T05:04:00Z,27.9920,-90.3255,11.1,28.4,11111222
Enven,ioos:station:wmo:42384:1,2022-10-03T05:14:00Z,27.9920,-90.3255,11.2,28.4,11111222
Enven,ioos:station:wmo:42384:1,2022-10-03T05:24:00Z,27.9920,-90.3255,11.4,28.4,11111222
Enven,ioos:station:wmo:42384:1,2022-10-03T05:34:00Z,27.9920,-90.3255,11.1,28.4,11111222
Enven,ioos:station:wmo:42384:1,2022-10-03T05:44:00Z,27.9920,-90.3255,11.1,28.4,11111222
Enven,ioos:station:wmo:42384:1,2022-10-03T05:54:00Z,27.9920,-90.3255,11.2,28.4,11111222
Enven,ioos:station:wmo:42384:1,2022-10-03T06:04:00Z,27.9920,-90.3255,11.3,28.4,11111222
Enven,ioos:station:wmo:42384:1,2022-10-03T06:14:00Z,27.9920,-90.3255,11.3,28.4,11111222
Enven,ioos:station:wmo:42384:1,2022-10-03T06:24:00Z,27.9920,-90.3255,11.2,28.4,11111222
Enven,ioos:station:wmo:42384:1,2022-10-03T06:34:00Z,27.9920,-90.3255,11.2,28.4,11111222
Enven,ioos:station:wmo:42384:1,2022-10-03T06:44:00Z,27.9920,-90.3255,11.3,28.4,11111222
Enven,ioos:station:wmo:42384:1,2022-10-03T06:54:00Z,27.9920,-90.3255,11.3,28.4,11111222
Enven,ioos:station:wmo:42384:1,2022-10-03T07:04:00Z,27.9920,-90.3255,11.4,28.4,11111222
Enven,ioos:station:wmo:42384:1,2022-10-03T07:14:00Z,27.9920,-90.3255,11.4,28.4,11111222
Enven,ioos:station:wmo:42384:1,2022-10-03T07:24:00Z,27.9920,-90.3255,11.3,28.4,11111222
Enven,ioos:station:wmo:42384:1,2022-10-03T07:34:00Z,27.9920,-90.3255,11.3,28.4,11111222
Enven,ioos:station:wmo:42384:1,2022-10-03T07:44:00Z,27.9920,-90.3255,11.2,28.4,11111222
Enven,ioos:station:wmo:42384:1,2022-10-03T07:54:00Z,27.9920,-90.3255,11.2,28.4,11111222
Enven,ioos:station:wmo:42384:1,2022-10-03T08:04:00Z,27.9920,-90.3255,11.1,28.4,11111222
Enven,ioos:station:wmo:42384:1,2022-10-03T08:14:00Z,27.9920,-90.3255,11.1,28.4,11111222
Enven,ioos:station:wmo:42384:1,2022-10-03T08:24:00Z,27.9920,-90.3255,11.1,28.5,11111222
Enven,ioos:station:wmo:42384:1,2022-10-03T08:34:00Z,27.9920,-90.3255,11.1,28.5,11111222
Enven,ioos:station:wmo:42384:1,2022-10-03T08:44:00Z,27.9920,-90.3255,11.2,28.5,11111222
Enven,ioos:station:wmo:42384:1,2022-10-03T08:54:00Z,27.9920,-90.3255,11.4,28.5,11111222
Enven,ioos:station:wmo:42384:1,2022-10-03T09:04:00Z,27.9920,-90.3255,11.3,28.5,11111222
Enven,ioos:station:wmo:42384:1,2022-10-03T09:14:00Z,27.9920,-90.3255,11.1,28.5,11111222
Enven,ioos:station:wmo:42384:1,2022-10-03T09:24:00Z,27.9920,-90.3255,11.2,28.5,11111222
Enven,ioos:station:wmo:42384:1,2022-10-03T09:34:00Z,27.9920,-90.3255,11.1,28.5,11111222
Enven,ioos:station:wmo:42384:1,2022-10-03T09:44:00Z,27.9920,-90.3255,11.2,28.5,11111222
Enven,ioos:station:wmo:42384:1,2022-10-03T09:54:00Z,27.9920,-90.3255,11.1,28.5,11111222
Enven,ioos:station:wmo:42384:1,2022-10-03T10:04:00Z,27.9920,-90.3255,11.0,28.5,11111222
Enven,ioos:station:wmo:42384:1,2022-10-03T10:14:00Z,27.9920,-90.3255,11.1,28.5,11111222
Enven,ioos:station:wmo:42384:1,2022-10-03T10:24:00Z,27.9920,-90.3255,11.1,28.5,11111222
Enven,ioos:station:wmo:42384:1,2022-10-03T10:34:00Z,27.9920,-90.3255,11.1,28.5,11111222
Enven,ioos:station:wmo:42384:1,2022-10-03T10:44:00Z,27.9920,-90.3255,11.0,28.5,11111222
Enven,ioos:station:wmo:42384:1,2022-10-03T10:54:00Z,27.9920,-90.3255,11.1,28.5,11111222
Enven,ioos:station:wmo:42384:1,2022-10-03T11:04:00Z,27.9920,-90.3255,11.1,28.5,11111222